This is the latest recevied weather packets stored in our database for station/object CE2KVL-1. If no packets are shown the sender has not sent any weather packets the latest 10 day(s).
| Time | Temp. | Humidity | Pressure | Rain* | Wind** | Luminosity | Snow |
|---|---|---|---|---|---|---|---|
| 1777910882 | 18.89° C | 35% | 1020 hPa | - | - | - | - |
| 1777910583 | 18.89° C | 36% | 1020.6 hPa | - | - | - | - |
| 1777910282 | 18.89° C | 37% | 1020 hPa | - | - | - | - |
| 1777909981 | 18.89° C | 37% | 1020 hPa | - | - | - | - |
| 1777909682 | 18.33° C | 37% | 1020.2 hPa | - | - | - | - |
| 1777909381 | 18.33° C | 37% | 1020.3 hPa | - | - | - | - |
| 1777909082 | 17.78° C | 37% | 1020.8 hPa | - | - | - | - |
| 1777908782 | 17.78° C | 38% | 1020.6 hPa | - | - | - | - |
| 1777908482 | 17.78° C | 38% | 1020.9 hPa | - | - | - | - |
| 1777908181 | 17.78° C | 39% | 1020.8 hPa | - | - | - | - |
| 1777907882 | 17.78° C | 41% | 1020.9 hPa | - | - | - | - |
| 1777907582 | 17.78° C | 42% | 1020.6 hPa | - | - | - | - |
| 1777907282 | 17.78° C | 42% | 1021 hPa | - | - | - | - |
| 1777906982 | 17.78° C | 40% | 1021.1 hPa | - | - | - | - |
| 1777906682 | 17.78° C | 40% | 1021.1 hPa | - | - | - | - |
| 1777906382 | 17.78° C | 39% | 1020.7 hPa | - | - | - | - |
| 1777906081 | 17.78° C | 39% | 1020.9 hPa | - | - | - | - |
| 1777905782 | 17.78° C | 39% | 1020.8 hPa | - | - | - | - |
| 1777905482 | 17.22° C | 42% | 1021.1 hPa | - | - | - | - |
| 1777905182 | 17.78° C | 44% | 1020.9 hPa | - | - | - | - |
| 1777904881 | 17.22° C | 44% | 1021.1 hPa | - | - | - | - |
| 1777904582 | 17.22° C | 53% | 1021 hPa | - | - | - | - |
| 1777904281 | 17.22° C | 52% | 1020.8 hPa | - | - | - | - |
| 1777903982 | 17.22° C | 60% | 1021.3 hPa | - | - | - | - |
| 1777903682 | 17.22° C | 63% | 1020.9 hPa | - | - | - | - |
* Rain since midnight (hover to see other rain measurements)
** Current wind speed in m/s (hover to see current wind gust speed)